METEOR 2-5 DEB

Satellite information

Favourite Embed

Satellite Type and Status

DEBRISIN ORBIT

Key statistics

Satellite METEOR 2-5 DEB at a glance.

Uptime

16686

Days in orbit

Revolutions

≈ 14.4

Per day

Orbit

LEO

Low Earth Orbit

Inclination

81.2

Latest

Satellite identification and parameters

Extended collection of information and parameters for METEOR 2-5 DEB.

Object identification

Identified? True

Debris? True

Object name: METEOR 2-5 DEB

International designator: 1979-095CR

Object number (NORAD): 45509

Object ID (CCSDS): 45509

Country: COMMONWEALTH OF INDEPENDENT STATES (CIS)

Current information (Y/N): Y

RCS size: SMALL

Orbital parameters

Period: 100.087 minutes

Inclination: 81.188 deg

SMA: 7140.787 km

Apoapsis: 767.918 km

Periapsis: 757.386 km

RAAN: 117.5471 deg

Eccentricy: 0.0007375

Argument of periapsis: 53.3621 deg

Mean anomaly: 322.292 deg

Mean motion: 14.38744409 rev/day

Mean motion (dot): 0.00006644 rev/day2

B* drag term: 0.0021591 1/REarth

Two-line elements (TLE)

Creation date: July 3, 2025, 5:26 p.m.

Reference frame: TEME

Reference center: EARTH

Epoch: July 3, 2025, 1:44 a.m. UTC

TLE line 0: 0 METEOR 2-5 DEB

TLE line 1: 1 45509U 79095CR 25184.07286311 .00006644 00000-0 21591-2 0 9991

TLE line 2: 2 45509 81.1880 117.5471 0007375 53.3621 322.2920 14.38744409595035

Live tracking on map

Real-time ground track for satellite METEOR 2-5 DEB.

In-orbit conjunctions

A list of the most updated potential collisions computed for object METEOR 2-5 DEB.

Target Orbit TCA Probability of collision Miss distance Type
COSMOS 923 LEO 2024-08-29 03:59:45 0.0002951176 158.0 (m) PAYLOAD
FENGYUN 1C DEB SSO 2024-07-12 09:29:06 0.0001024538 178.0 (m) DEBRIS

Associated space launch

Second generation soviet meteorological satellite

METEOR 2-5 DEB was lifted into orbit during the mission ‘Vostok 8A92M | Meteor-2 5’, on board a Vostok 8A92M space rocket.

The launch took place on Oct. 31, 1979, 9:25 a.m. from 43/4 (43R).

For more information about the launch, click the button.

Launch to space Vostok 8A92M | Meteor-2 5
Vostok 8A92M | Meteor-2 5

Agency: N/A

Status: Launch Successful

Launch date: Oct. 31, 1979, 9:25 a.m. UTC

Rocket: Vostok 8A92M

Launch pad: 43/4 (43R)

Location: Plesetsk Cosmodrome, Russian Federation

...

Latest news about this satellite

There are no fresh news available about this satellite. Check back as we update our databases every day.


Newsletter sign-up

Weekly statistics, charts and insights to help you stay on top of the space industry.